QPF
0.01 0.01 0.01 0.01 0.01 0.01 0.01 0.03 0.03 0.03 0.03 0.04 0.04 0.04 0.05 0.05 0.06 0.09 0.11 0.09 0.06 0.05 0.03 0.01 0.02 0.04 0.04 0.04 0.03 0.03 0.03 0.03 0.03 0.03 0.04 0.04 0.04 0.06 0.06 0.05 0.04 0.03 0.03
0.02 0.01 0.01 0.01 0.00 0.01 0.01 0.03 0.04 0.02 0.03 0.06 0.07 0.08 0.07 0.07 0.07 0.09 0.09 0.07 0.04 0.03 0.03 0.03 0.02 0.04 0.04 0.04 0.04 0.04 0.03 0.02 0.03 0.03 0.03 0.03 0.03 0.03 0.03 0.04 0.03 0.02 0.04
0.03 0.02 0.01 0.01 0.01 0.00 0.01 0.01 0.02 0.02 0.03 0.06 0.09 0.08 0.08 0.08 0.08 0.08 0.08 0.07 0.05 0.03 0.03 0.03 0.02 0.03 0.03 0.03 0.04 0.04 0.04 0.03 0.02 0.03 0.03 0.03 0.03 0.02 0.02 0.02 0.03 0.03 0.03
0.01 0.02 0.03 0.02 0.00 0.00 0.01 0.01 0.01 0.02 0.03 0.04 0.05 0.06 0.07 0.07 0.08 0.11 0.12 0.09 0.06 0.04 0.03 0.03 0.02 0.01 0.02 0.03 0.02 0.03 0.03 0.03 0.02 0.02 0.02 0.02 0.02 0.02 0.02 0.02 0.02 0.03 0.03
0.01 0.02 0.03 0.02 0.01 0.01 0.01 0.01 0.01 0.02 0.03 0.03 0.05 0.07 0.07 0.09 0.11 0.10 0.06 0.04 0.03 0.03 0.03 0.04 0.05 0.05 0.04 0.03 0.02 0.02 0.02 0.02 0.01 0.02 0.02 0.02 0.02 0.03 0.04 0.03 0.03 0.03 0.02
0.03 0.03 0.03 0.02 0.01 0.01 0.01 0.01 0.02 0.03 0.03 0.03 0.04 0.08 0.07 0.06 0.04 0.03 0.03 0.02 0.02 0.02 0.02 0.03 0.05 0.07 0.06 0.03 0.03 0.04 0.03 0.02 0.01 0.01 0.01 0.02 0.02 0.03 0.04 0.03 0.02 0.01 0.02
0.04 0.05 0.04 0.03 0.03 0.03 0.02 0.01 0.01 0.03 0.04 0.04 0.03 0.02 0.02 0.02 0.02 0.01 0.02 0.02 0.02 0.02 0.02 0.03 0.05 0.05 0.05 0.05 0.04 0.05 0.05 0.05 0.04 0.02 0.02 0.02 0.02 0.02 0.01 0.01 0.01 0.01 0.02
0.05 0.05 0.04 0.05 0.04 0.03 0.03 0.02 0.02 0.03 0.03 0.04 0.03 0.02 0.02 0.03 0.02 0.02 0.03 0.03 0.02 0.03 0.03 0.04 0.06 0.04 0.05 0.07 0.08 0.08 0.07 0.09 0.09 0.08 0.05 0.04 0.02 0.01 0.01 0.01 0.01 0.01 0.02
0.05 0.04 0.04 0.05 0.05 0.03 0.03 0.03 0.02 0.02 0.03 0.03 0.03 0.04 0.05 0.04 0.04 0.05 0.06 0.05 0.04 0.04 0.04 0.04 0.05 0.04 0.05 0.07 0.10 0.11 0.12 0.14 0.14 0.12 0.09 0.06 0.04 0.02 0.01 0.01 0.01 0.01 0.02
0.04 0.04 0.04 0.04 0.04 0.03 0.03 0.03 0.03 0.03 0.04 0.04 0.05 0.05 0.05 0.05 0.05 0.06 0.06 0.05 0.05 0.05 0.05 0.06 0.05 0.05 0.05 0.06 0.08 0.09 0.11 0.09 0.09 0.09 0.09 0.09 0.05 0.03 0.01 0.01 0.01 0.01 0.02
0.04 0.04 0.04 0.03 0.03 0.03 0.03 0.04 0.04 0.03 0.04 0.04 0.06 0.07 0.06 0.05 0.05 0.04 0.05 0.05 0.05 0.05 0.04 0.03 0.03 0.04 0.05 0.04 0.04 0.02 0.05 0.04 0.04 0.04 0.06 0.07 0.05 0.04 0.02 0.02 0.02 0.02 0.02
0.02 0.02 0.02 0.02 0.03 0.03 0.03 0.03 0.03 0.03 0.03 0.03 0.05 0.06 0.06 0.05 0.04 0.03 0.05 0.04 0.04 0.04 0.03 0.03 0.03 0.04 0.04 0.04 0.04 0.02 0.03 0.04 0.05 0.06 0.09 0.10 0.07 0.05 0.02 0.02 0.02 0.02 0.03
0.02 0.01 0.01 0.01 0.01 0.02 0.02 0.02 0.02 0.03 0.04 0.04 0.04 0.06 0.05 0.04 0.03 0.02 0.02 0.03 0.03 0.03 0.02 0.02 0.03 0.04 0.03 0.04 0.05 0.05 0.04 0.05 0.05 0.04 0.06 0.08 0.06 0.06 0.03 0.02 0.03 0.03 0.03
0.02 0.02 0.02 0.02 0.02 0.02 0.02 0.03 0.04 0.04 0.05 0.07 0.09 0.08 0.07 0.04 0.03 0.02 0.02 0.03 0.03 0.03 0.02 0.02 0.03 0.04 0.04 0.04 0.05 0.05 0.04 0.05 0.03 0.02 0.03 0.06 0.06 0.06 0.03 0.03 0.04 0.04 0.03
0.03 0.03 0.03 0.03 0.02 0.01 0.02 0.03 0.04 0.06 0.11 0.16 0.15 0.12 0.06 0.04 0.03 0.04 0.05 0.05 0.05 0.05 0.04 0.02 0.02 0.04 0.04 0.03 0.03 0.04 0.04 0.04 0.03 0.02 0.02 0.03 0.05 0.06 0.04 0.03 0.04 0.04 0.04
0.05 0.04 0.03 0.03 0.02 0.02 0.03 0.03 0.05 0.06 0.12 0.08 0.06 0.06 0.05 0.06 0.04 0.04 0.06 0.07 0.07 0.06 0.05 0.06 0.04 0.04 0.04 0.04 0.04 0.04 0.04 0.04 0.03 0.02 0.02 0.02 0.03 0.04 0.03 0.03 0.03 0.03 0.03
0.06 0.06 0.05 0.04 0.03 0.04 0.05 0.05 0.05 0.05 0.06 0.05 0.05 0.06 0.06 0.06 0.05 0.04 0.06 0.09 0.08 0.07 0.07 0.06 0.07 0.06 0.06 0.06 0.05 0.06 0.04 0.04 0.03 0.02 0.02 0.02 0.01 0.01 0.01 0.01 0.02 0.02 0.04
0.07 0.06 0.05 0.04 0.04 0.05 0.06 0.06 0.06 0.06 0.06 0.06 0.06 0.07 0.08 0.09 0.09 0.09 0.08 0.08 0.08 0.08 0.10 0.10 0.07 0.07 0.06 0.06 0.05 0.07 0.07 0.07 0.05 0.03 0.04 0.03 0.01 0.01 0.01 0.01 0.01 0.01 0.02
0.05 0.06 0.05 0.04 0.04 0.04 0.03 0.04 0.05 0.05 0.04 0.05 0.05 0.05 0.06 0.08 0.10 0.10 0.10 0.10 0.09 0.09 0.10 0.13 0.10 0.08 0.08 0.08 0.07 0.07 0.08 0.08 0.07 0.06 0.06 0.06 0.05 0.03 0.02 0.01 0.01 0.02 0.02
0.05 0.04 0.04 0.04 0.04 0.03 0.03 0.03 0.03 0.03 0.03 0.03 0.04 0.04 0.05 0.06 0.06 0.05 0.05 0.05 0.06 0.07 0.08 0.10 0.10 0.08 0.09 0.10 0.09 0.07 0.06 0.06 0.06 0.06 0.05 0.04 0.06 0.06 0.03 0.02 0.02 0.02 0.02
0.04 0.03 0.02 0.02 0.02 0.02 0.02 0.02 0.02 0.03 0.03 0.03 0.03 0.03 0.04 0.04 0.04 0.03 0.03 0.03 0.03 0.04 0.05 0.07 0.08 0.07 0.07 0.09 0.08 0.06 0.04 0.04 0.04 0.04 0.03 0.02 0.03 0.06 0.04 0.03 0.02 0.02 0.02
0.03 0.02 0.02 0.02 0.01 0.01 0.01 0.02 0.03 0.03 0.03 0.03 0.03 0.03 0.03 0.03 0.03 0.03 0.02 0.03 0.03 0.03 0.04 0.05 0.06 0.07 0.08 0.10 0.08 0.06 0.05 0.04 0.02 0.02 0.02 0.02 0.03 0.05 0.04 0.02 0.02 0.02 0.02
0.02 0.02 0.02 0.02 0.01 0.01 0.01 0.02 0.03 0.03 0.04 0.04 0.04 0.04 0.04 0.04 0.05 0.04 0.03 0.02 0.03 0.03 0.05 0.05 0.04 0.04 0.05 0.06 0.09 0.08 0.06 0.04 0.03 0.03 0.04 0.04 0.04 0.04 0.03 0.02 0.02 0.02 0.01
0.02 0.02 0.02 0.02 0.01 0.01 0.01 0.02 0.03 0.03 0.03 0.04 0.03 0.04 0.04 0.05 0.06 0.06 0.05 0.03 0.02 0.02 0.03 0.05 0.05 0.05 0.04 0.04 0.05 0.06 0.06 0.04 0.04 0.05 0.05 0.04 0.03 0.03 0.03 0.03 0.03 0.02 0.01
0.03 0.02 0.02 0.02 0.02 0.01 0.02 0.03 0.03 0.04 0.04 0.03 0.03 0.04 0.03 0.03 0.05 0.07 0.06 0.04 0.02 0.02 0.02 0.03 0.03 0.04 0.04 0.05 0.05 0.05 0.06 0.05 0.05 0.06 0.05 0.04 0.03 0.03 0.03 0.03 0.03 0.03 0.02
0.04 0.03 0.02 0.02 0.02 0.01 0.01 0.03 0.03 0.03 0.03 0.03 0.03 0.03 0.03 0.03 0.04 0.05 0.06 0.05 0.04 0.04 0.03 0.03 0.03 0.03 0.03 0.04 0.04 0.05 0.06 0.06 0.06 0.05 0.03 0.04 0.04 0.04 0.04 0.03 0.03 0.03 0.03
MSLP
1008.37 1008.71 1009.02 1009.30 1009.54 1009.77 1010.03 1010.33 1010.70 1011.13 1011.62 1012.14 1012.67 1013.17 1013.62 1014.01 1014.32 1014.57 1014.77 1014.95 1015.13 1015.34 1015.57 1015.85 1016.16 1016.50 1016.86 1017.23 1017.58 1017.92 1018.23 1018.49 1018.71 1018.88 1018.99 1019.04 1019.05 1019.01 1018.95 1018.87 1018.80 1018.73 1018.68
1007.95 1008.39 1008.80 1009.16 1009.47 1009.74 1010.00 1010.29 1010.63 1011.04 1011.53 1012.06 1012.62 1013.16 1013.66 1014.08 1014.43 1014.70 1014.91 1015.09 1015.27 1015.46 1015.70 1015.97 1016.29 1016.63 1017.00 1017.36 1017.72 1018.05 1018.35 1018.61 1018.82 1018.99 1019.11 1019.18 1019.20 1019.18 1019.13 1019.04 1018.95 1018.85 1018.73
1007.16 1007.73 1008.29 1008.79 1009.21 1009.56 1009.87 1010.17 1010.51 1010.92 1011.40 1011.94 1012.52 1013.09 1013.63 1014.11 1014.49 1014.80 1015.03 1015.23 1015.41 1015.61 1015.84 1016.11 1016.41 1016.75 1017.09 1017.44 1017.77 1018.09 1018.37 1018.62 1018.83 1019.01 1019.15 1019.26 1019.32 1019.33 1019.31 1019.24 1019.13 1018.99 1018.82
1006.07 1006.78 1007.50 1008.16 1008.73 1009.20 1009.59 1009.94 1010.31 1010.72 1011.20 1011.75 1012.34 1012.95 1013.53 1014.05 1014.48 1014.83 1015.11 1015.34 1015.54 1015.75 1015.97 1016.23 1016.52 1016.83 1017.15 1017.47 1017.77 1018.05 1018.31 1018.55 1018.77 1018.97 1019.15 1019.30 1019.41 1019.48 1019.49 1019.44 1019.33 1019.16 1018.93
1004.81 1005.65 1006.53 1007.35 1008.07 1008.67 1009.15 1009.57 1009.98 1010.41 1010.91 1011.47 1012.09 1012.72 1013.33 1013.90 1014.38 1014.78 1015.11 1015.37 1015.60 1015.83 1016.06 1016.32 1016.59 1016.88 1017.17 1017.45 1017.71 1017.96 1018.20 1018.43 1018.66 1018.89 1019.10 1019.30 1019.47 1019.59 1019.65 1019.63 1019.52 1019.33 1019.05
1003.55 1004.48 1005.47 1006.43 1007.28 1007.99 1008.57 1009.07 1009.53 1010.00 1010.52 1011.11 1011.74 1012.40 1013.05 1013.65 1014.18 1014.62 1014.99 1015.30 1015.57 1015.82 1016.06 1016.32 1016.59 1016.86 1017.12 1017.37 1017.61 1017.83 1018.05 1018.28 1018.51 1018.75 1019.00 1019.24 1019.45 1019.62 1019.72 1019.73 1019.64 1019.44 1019.14
1002.44 1003.40 1004.45 1005.48 1006.41 1007.21 1007.87 1008.44 1008.95 1009.48 1010.04 1010.65 1011.32 1012.00 1012.68 1013.31 1013.87 1014.35 1014.75 1015.10 1015.39 1015.67 1015.94 1016.21 1016.48 1016.75 1017.00 1017.23 1017.45 1017.66 1017.86 1018.06 1018.29 1018.54 1018.80 1019.06 1019.31 1019.52 1019.66 1019.70 1019.63 1019.43 1019.12
1001.60 1002.53 1003.57 1004.60 1005.55 1006.38 1007.09 1007.71 1008.28 1008.85 1009.46 1010.12 1010.82 1011.53 1012.23 1012.88 1013.46 1013.96 1014.38 1014.75 1015.07 1015.37 1015.67 1015.96 1016.24 1016.52 1016.78 1017.01 1017.22 1017.41 1017.59 1017.78 1017.99 1018.22 1018.48 1018.75 1019.01 1019.24 1019.40 1019.47 1019.42 1019.25 1018.96
1001.11 1001.94 1002.89 1003.85 1004.75 1005.55 1006.27 1006.91 1007.53 1008.16 1008.82 1009.52 1010.26 1010.99 1011.71 1012.36 1012.95 1013.45 1013.88 1014.26 1014.60 1014.92 1015.24 1015.56 1015.87 1016.17 1016.45 1016.69 1016.90 1017.08 1017.25 1017.41 1017.59 1017.80 1018.03 1018.28 1018.53 1018.75 1018.93 1019.02 1019.00 1018.87 1018.62
1000.99 1001.67 1002.46 1003.27 1004.06 1004.79 1005.46 1006.11 1006.75 1007.42 1008.13 1008.88 1009.65 1010.40 1011.12 1011.78 1012.35 1012.84 1013.27 1013.64 1013.99 1014.34 1014.68 1015.03 1015.38 1015.71 1016.02 1016.28 1016.50 1016.67 1016.82 1016.96 1017.10 1017.27 1017.46 1017.67 1017.89 1018.10 1018.27 1018.38 1018.40 1018.32 1018.12
1001.24 1001.72 1002.31 1002.92 1003.54 1004.15 1004.74 1005.36 1006.00 1006.70 1007.44 1008.22 1009.01 1009.78 1010.50 1011.13 1011.69 1012.16 1012.57 1012.93 1013.29 1013.65 1014.02 1014.41 1014.80 1015.17 1015.51 1015.80 1016.03 1016.21 1016.34 1016.45 1016.55 1016.66 1016.80 1016.96 1017.14 1017.33 1017.49 1017.61 1017.66 1017.63 1017.51
1001.80 1002.08 1002.44 1002.83 1003.25 1003.70 1004.19 1004.73 1005.35 1006.05 1006.81 1007.60 1008.40 1009.16 1009.85 1010.47 1010.99 1011.43 1011.82 1012.18 1012.55 1012.93 1013.33 1013.76 1014.19 1014.60 1014.98 1015.29 1015.54 1015.72 1015.84 1015.92 1015.99 1016.05 1016.14 1016.25 1016.39 1016.54 1016.69 1016.81 1016.89 1016.90 1016.84
1002.65 1002.73 1002.86 1003.02 1003.24 1003.51 1003.87 1004.33 1004.89 1005.56 1006.30 1007.07 1007.85 1008.58 1009.24 1009.81 1010.30 1010.72 1011.09 1011.45 1011.83 1012.23 1012.67 1013.14 1013.61 1014.06 1014.47 1014.81 1015.07 1015.26 1015.37 1015.43 1015.47 1015.50 1015.55 1015.62 1015.72 1015.84 1015.96 1016.08 1016.17 1016.21 1016.19
1003.73 1003.63 1003.56 1003.52 1003.54 1003.64 1003.86 1004.21 1004.70 1005.30 1005.98 1006.71 1007.43 1008.11 1008.72 1009.24 1009.69 1010.08 1010.44 1010.81 1011.20 1011.63 1012.11 1012.61 1013.12 1013.61 1014.04 1014.40 1014.67 1014.86 1014.98 1015.03 1015.06 1015.07 1015.09 1015.13 1015.20 1015.29 1015.39 1015.48 1015.56 1015.61 1015.61
1004.97 1004.75 1004.52 1004.31 1004.16 1004.12 1004.21 1004.45 1004.83 1005.34 1005.94 1006.58 1007.22 1007.82 1008.36 1008.83 1009.23 1009.60 1009.96 1010.33 1010.75 1011.21 1011.71 1012.25 1012.78 1013.28 1013.73 1014.10 1014.38 1014.58 1014.70 1014.76 1014.78 1014.79 1014.81 1014.83 1014.88 1014.94 1015.00 1015.06 1015.11 1015.13 1015.12
1006.30 1006.00 1005.67 1005.35 1005.09 1004.93 1004.91 1005.04 1005.32 1005.72 1006.21 1006.75 1007.28 1007.79 1008.25 1008.65 1009.01 1009.35 1009.71 1010.09 1010.52 1011.01 1011.53 1012.08 1012.62 1013.12 1013.57 1013.93 1014.21 1014.41 1014.54 1014.61 1014.65 1014.67 1014.69 1014.72 1014.75 1014.78 1014.80 1014.82 1014.81 1014.78 1014.72
1007.63 1007.31 1006.93 1006.56 1006.23 1006.01 1005.91 1005.95 1006.13 1006.43 1006.81 1007.22 1007.65 1008.05 1008.42 1008.75 1009.07 1009.39 1009.73 1010.12 1010.56 1011.05 1011.58 1012.12 1012.64 1013.13 1013.55 1013.89 1014.16 1014.35 1014.49 1014.58 1014.64 1014.68 1014.72 1014.75 1014.77 1014.77 1014.75 1014.70 1014.62 1014.51 1014.37
1008.87 1008.57 1008.21 1007.84 1007.51 1007.26 1007.12 1007.11 1007.22 1007.42 1007.69 1008.00 1008.31 1008.61 1008.90 1009.17 1009.44 1009.73 1010.06 1010.44 1010.87 1011.35 1011.85 1012.35 1012.83 1013.27 1013.65 1013.95 1014.19 1014.37 1014.51 1014.62 1014.70 1014.77 1014.83 1014.86 1014.87 1014.85 1014.77 1014.65 1014.49 1014.28 1014.05
1009.94 1009.70 1009.40 1009.08 1008.78 1008.56 1008.43 1008.39 1008.45 1008.59 1008.78 1009.00 1009.22 1009.44 1009.65 1009.86 1010.09 1010.35 1010.65 1011.00 1011.40 1011.83 1012.28 1012.72 1013.13 1013.50 1013.81 1014.06 1014.26 1014.42 1014.56 1014.67 1014.78 1014.87 1014.95 1014.99 1014.99 1014.93 1014.81 1014.62 1014.37 1014.07 1013.75
1010.83 1010.66 1010.44 1010.20 1009.98 1009.81 1009.71 1009.69 1009.74 1009.84 1009.97 1010.13 1010.28 1010.43 1010.59 1010.75 1010.94 1011.16 1011.42 1011.72 1012.06 1012.43 1012.80 1013.15 1013.47 1013.75 1013.98 1014.16 1014.32 1014.45 1014.57 1014.69 1014.81 1014.92 1015.01 1015.06 1015.05 1014.97 1014.80 1014.55 1014.23 1013.86 1013.45
1011.57 1011.47 1011.33 1011.17 1011.04 1010.94 1010.90 1010.91 1010.96 1011.06 1011.16 1011.28 1011.39 1011.50 1011.61 1011.73 1011.88 1012.05 1012.25 1012.49 1012.75 1013.03 1013.30 1013.54 1013.76 1013.94 1014.08 1014.20 1014.31 1014.41 1014.52 1014.64 1014.77 1014.89 1014.98 1015.03 1015.01 1014.91 1014.72 1014.43 1014.06 1013.64 1013.19
1012.22 1012.17 1012.10 1012.03 1011.97 1011.94 1011.95 1012.00 1012.08 1012.17 1012.28 1012.37 1012.46 1012.54 1012.62 1012.70 1012.79 1012.91 1013.05 1013.20 1013.37 1013.54 1013.70 1013.83 1013.94 1014.02 1014.09 1014.14 1014.20 1014.27 1014.37 1014.48 1014.61 1014.73 1014.83 1014.88 1014.86 1014.75 1014.55 1014.25 1013.88 1013.44 1012.98
1012.88 1012.87 1012.84 1012.82 1012.82 1012.84 1012.89 1012.97 1013.06 1013.16 1013.26 1013.35 1013.42 1013.47 1013.52 1013.56 1013.60 1013.65 1013.71 1013.77 1013.84 1013.89 1013.94 1013.97 1013.98 1013.97 1013.97 1013.97 1013.99 1014.04 1014.12 1014.23 1014.35 1014.47 1014.56 1014.61 1014.59 1014.49 1014.30 1014.03 1013.68 1013.28 1012.86
1013.65 1013.64 1013.64 1013.64 1013.65 1013.69 1013.76 1013.84 1013.93 1014.03 1014.11 1014.18 1014.23 1014.26 1014.27 1014.26 1014.24 1014.22 1014.19 1014.16 1014.12 1014.07 1014.01 1013.94 1013.87 1013.80 1013.74 1013.70 1013.69 1013.72 1013.79 1013.89 1014.00 1014.11 1014.20 1014.24 1014.23 1014.15 1013.99 1013.76 1013.48 1013.15 1012.81
1014.58 1014.56 1014.55 1014.54 1014.55 1014.57 1014.62 1014.68 1014.74 1014.81 1014.86 1014.90 1014.91 1014.90 1014.87 1014.81 1014.72 1014.63 1014.51 1014.39 1014.25 1014.10 1013.95 1013.80 1013.66 1013.54 1013.44 1013.38 1013.35 1013.37 1013.42 1013.50 1013.59 1013.69 1013.76 1013.79 1013.79 1013.73 1013.61 1013.45 1013.26 1013.03 1012.80
1015.67 1015.64 1015.60 1015.56 1015.53 1015.51 1015.51 1015.51 1015.53 1015.54 1015.55 1015.54 1015.50 1015.44 1015.35 1015.24 1015.09 1014.91 1014.72 1014.51 1014.28 1014.06 1013.83 1013.62 1013.43 1013.27 1013.15 1013.07 1013.03 1013.03 1013.06 1013.12 1013.18 1013.23 1013.28 1013.29 1013.28 1013.24 1013.18 1013.09 1012.98 1012.87 1012.75
Thickness
5767 5767 5766 5764 5763 5761 5759 5757 5754 5753 5750 5746 5743 5739 5737 5737 5737 5736 5735 5734 5732 5731 5730 5728 5727 5726 5724 5723 5722 5720 5718 5716 5716 5715 5714 5715 5716 5717 5717 5717 5717 5717 5717
5760 5761 5761 5760 5759 5758 5756 5754 5751 5750 5748 5745 5742 5739 5736 5734 5734 5734 5733 5731 5730 5730 5728 5726 5724 5723 5721 5719 5719 5717 5714 5713 5712 5711 5708 5705 5707 5711 5713 5713 5713 5713 5714
5755 5756 5756 5756 5756 5755 5753 5752 5749 5747 5745 5743 5739 5736 5732 5731 5729 5729 5728 5728 5728 5727 5726 5724 5722 5721 5719 5717 5716 5714 5712 5708 5708 5708 5705 5701 5699 5701 5706 5707 5709 5709 5710
5754 5753 5753 5752 5752 5753 5752 5749 5746 5744 5742 5740 5736 5732 5729 5726 5725 5726 5725 5726 5726 5725 5724 5722 5720 5719 5717 5715 5714 5712 5710 5707 5704 5703 5704 5702 5701 5697 5697 5701 5704 5705 5705
5752 5750 5750 5751 5751 5750 5749 5746 5743 5740 5739 5736 5734 5730 5727 5725 5723 5723 5723 5722 5722 5722 5721 5720 5718 5716 5715 5713 5711 5709 5707 5705 5702 5701 5699 5698 5697 5697 5694 5694 5697 5699 5701
5749 5748 5748 5747 5746 5746 5745 5742 5739 5736 5735 5733 5731 5728 5725 5723 5720 5719 5719 5719 5718 5718 5718 5717 5716 5714 5712 5710 5708 5706 5703 5702 5700 5699 5697 5696 5695 5694 5692 5691 5692 5692 5695
5746 5744 5743 5743 5742 5741 5740 5738 5735 5732 5730 5729 5727 5726 5724 5722 5719 5718 5717 5716 5715 5714 5714 5714 5712 5711 5709 5708 5706 5703 5701 5699 5697 5696 5695 5695 5694 5693 5692 5690 5689 5688 5690
5743 5742 5741 5740 5739 5737 5736 5734 5731 5729 5727 5725 5724 5724 5722 5720 5717 5716 5716 5714 5713 5713 5713 5711 5710 5708 5707 5705 5702 5700 5698 5696 5694 5694 5693 5692 5691 5690 5690 5689 5686 5684 5684
5738 5738 5737 5736 5735 5734 5732 5731 5728 5726 5724 5723 5721 5720 5718 5717 5715 5715 5714 5712 5711 5711 5709 5708 5706 5705 5703 5701 5699 5697 5695 5693 5691 5691 5690 5688 5687 5687 5687 5686 5685 5682 5679
5732 5732 5731 5730 5730 5730 5729 5728 5726 5723 5721 5719 5717 5716 5714 5714 5713 5712 5710 5709 5707 5707 5705 5704 5702 5701 5699 5698 5696 5694 5692 5690 5689 5687 5686 5685 5684 5684 5683 5682 5681 5681 5679
5726 5726 5726 5725 5725 5724 5723 5722 5721 5718 5716 5715 5713 5711 5710 5709 5708 5707 5706 5705 5703 5702 5701 5700 5698 5696 5695 5693 5691 5690 5688 5686 5685 5684 5683 5682 5682 5681 5680 5678 5677 5676 5675
5720 5720 5720 5719 5718 5717 5716 5716 5715 5714 5712 5711 5709 5707 5705 5704 5703 5702 5701 5700 5699 5698 5696 5695 5694 5692 5691 5689 5687 5686 5684 5682 5680 5680 5679 5678 5678 5677 5675 5674 5673 5672 5672
5712 5712 5713 5713 5711 5710 5710 5710 5709 5709 5708 5706 5703 5701 5699 5699 5698 5697 5696 5695 5694 5693 5692 5690 5689 5688 5687 5685 5684 5682 5681 5679 5677 5676 5675 5675 5674 5672 5671 5670 5669 5668 5668
5703 5704 5703 5704 5704 5704 5704 5703 5703 5703 5702 5700 5698 5695 5693 5693 5693 5692 5691 5689 5688 5687 5686 5685 5685 5684 5683 5681 5680 5678 5677 5675 5674 5673 5672 5671 5671 5669 5668 5667 5666 5664 5663
5695 5697 5696 5696 5697 5697 5697 5696 5696 5696 5695 5694 5692 5690 5688 5687 5686 5685 5685 5683 5682 5682 5681 5680 5680 5679 5678 5677 5675 5674 5672 5671 5669 5668 5668 5668 5668 5667 5665 5664 5662 5660 5658
5689 5690 5691 5690 5689 5689 5689 5689 5688 5689 5689 5687 5686 5684 5683 5681 5680 5679 5678 5677 5676 5675 5675 5674 5674 5674 5674 5673 5671 5670 5668 5666 5665 5664 5663 5663 5663 5662 5661 5660 5659 5657 5654
5682 5682 5683 5683 5683 5683 5683 5683 5683 5683 5681 5680 5679 5678 5677 5676 5675 5674 5672 5671 5670 5670 5669 5668 5667 5667 5667 5666 5665 5664 5662 5661 5660 5659 5657 5658 5658 5657 5656 5655 5653 5652 5651
5675 5675 5675 5675 5675 5675 5676 5676 5676 5675 5674 5674 5673 5672 5671 5670 5669 5668 5666 5665 5664 5664 5663 5662 5661 5661 5661 5660 5659 5658 5657 5655 5654 5653 5653 5652 5651 5651 5650 5649 5648 5647 5646
5667 5667 5667 5668 5668 5668 5668 5668 5668 5668 5667 5666 5666 5665 5664 5663 5662 5660 5658 5658 5657 5657 5656 5655 5655 5654 5654 5653 5652 5651 5650 5649 5648 5648 5648 5647 5646 5646 5644 5643 5642 5642 5641
5658 5659 5659 5659 5660 5660 5659 5659 5659 5659 5659 5660 5659 5658 5657 5656 5654 5653 5651 5651 5651 5650 5649 5649 5648 5647 5646 5646 5645 5644 5644 5643 5643 5642 5641 5641 5641 5640 5639 5638 5637 5636 5636
5650 5651 5651 5651 5652 5653 5652 5651 5651 5651 5653 5653 5652 5650 5649 5649 5648 5645 5644 5643 5643 5642 5641 5641 5641 5640 5640 5639 5638 5637 5636 5637 5637 5637 5636 5636 5635 5634 5633 5633 5632 5632 5631
5643 5643 5643 5643 5644 5645 5645 5644 5644 5645 5645 5645 5644 5643 5642 5641 5640 5637 5635 5635 5635 5634 5633 5633 5633 5633 5633 5632 5632 5631 5631 5632 5631 5631 5631 5631 5629 5628 5627 5626 5626 5626 5624
5634 5635 5635 5635 5636 5636 5637 5637 5637 5637 5637 5637 5636 5634 5634 5632 5630 5628 5627 5627 5627 5626 5625 5626 5626 5625 5626 5626 5627 5626 5626 5626 5626 5626 5625 5624 5623 5622 5621 5620 5620 5619 5619
5626 5626 5626 5627 5628 5628 5629 5630 5630 5630 5630 5629 5628 5626 5625 5623 5622 5621 5621 5620 5620 5619 5619 5619 5620 5619 5619 5621 5621 5620 5620 5620 5619 5618 5617 5617 5616 5616 5615 5614 5614 5613 5613
5618 5618 5619 5619 5620 5621 5622 5623 5623 5622 5621 5621 5620 5619 5618 5616 5615 5615 5614 5614 5614 5614 5614 5614 5614 5614 5615 5616 5615 5615 5615 5615 5613 5611 5611 5611 5610 5610 5609 5609 5609 5609 5609
5611 5611 5612 5612 5614 5615 5616 5616 5616 5615 5614 5613 5612 5611 5610 5609 5609 5608 5608 5608 5608 5608 5608 5609 5609 5610 5610 5609 5609 5609 5609 5608 5608 5607 5606 5605 5604 5604 5604 5603 5604 5604 5604